Find STARLINK-37373

NORAD ID: 68848 Int'l Des: 2026-094K Owner: SPXS Country: US Constellation: starlink operational
LEOCIRCULARRETROGRADE

当前视图

正在加载3D地球...

About STARLINK-37373

STARLINK-37373 (NORAD 68848) is a starlink constellation satellite (v2 mini) launched Apr 26, 2026 by SPXS of US. It operates in LEO, CIRCULAR, RETROGRADE orbit with a mass of 575.00 kg.

关于 STARLINK-37373

正在加载描述...

即将过境

Passes for default location (London). Set your location on the main map for personalized predictions.

高度历史

Loading altitude history...

两行轨道根数

1 68848U 26094K 26167.03376382 .00010719 00000-0 33389-3 0 9996
2 68848 97.2830 181.5257 0001698 91.3517 268.7920 15.33444011 7876
Epoch: Jun 16, 2026 • Age: 7 hours

当前状态

高度 469.1 km
速度 7.63 km/s
星下点 -3.04°S, 21.22°W
发射日期 Apr 26, 2026
运行时间 0.1 years
类型 internet

技术详情

分类 Payload
质量 575.00 kg
干质量 530.00 kg
总质量 575.00 kg
长度 0.30 m
直径 4.10 m
跨度 29.00 m
形状 Box + pan
制造商 SPXS
平台类型 Starlink V2MO
阶段状态 In Orbit
所有者/国家 SPXS/US

Most Searched